FW3157 Weather Reports


time (UTC)temp
C
wind
direction
speed
KPH
gust
KPH
rain 1hr
cm
rain 24hr
cm
rain mn
cm
humidity
%
barometer
mb
20260905093656 28 258 6.4 11.3 0.00 0.00 0.00 51 1018.1
20260905093421 28 299 6.4 9.7 0.00 0.00 0.00 50 1018.2
20260905092655 28 296 6.4 11.3 0.00 0.00 0.00 51 1018.2
20260905092154 28 256 6.4 12.9 0.00 0.00 0.00 48 1018.3
20260905091911 28 267 6.4 12.9 0.00 0.00 0.00 51 1018.3
20260905091152 28 281 6.4 12.9 0.00 0.00 0.00 49 1018.4
20260905090651 28 251 4.8 12.9 0.00 0.00 0.00 52 1018.5
20260905090632 28 243 4.8 9.7 0.00 0.00 0.00 49 1018.4
20260905085651 28 252 4.8 11.3 0.00 0.00 0.00 50 1018.4
20260905085148 28 290 4.8 11.3 0.00 0.00 0.00 54 1018.4
20260905084918 28 341 4.8 9.7 0.00 0.00 0.00 55 1018.5
20260905084147 27 219 4.8 9.7 0.00 0.00 0.00 56 1018.5
20260905083647 27 267 3.2 9.7 0.00 0.00 0.00 56 1018.5
20260905083147 27 294 4.8 9.7 0.00 0.00 0.00 57 1018.6
20260905083132 27 272 4.8 9.7 0.00 0.00 0.00 59 1018.6
20260905082407 27 296 4.8 9.7 0.00 0.00 0.00 62 1018.6
20260905081646 27 302 4.8 9.7 0.00 0.00 0.00 61 1018.6
20260905081146 27 313 3.2 8.0 0.00 0.00 0.00 63 1018.6
20260905080642 27 352 3.2 8.0 0.00 0.00 0.00 64 1018.6
20260905080142 27 271 3.2 8.0 0.00 0.00 0.00 62 1018.6
20260905075642 27 269 3.2 8.0 0.00 0.00 0.00 62 1018.5
20260905075400 27 231 3.2 6.4 0.00 0.00 0.00 68 1018.5
20260905074642 26 255 3.2 8.0 0.00 0.00 0.00 65 1018.5
20260905074141 26 262 4.8 8.0 0.00 0.00 0.00 66 1018.5
20260905073641 26 272 4.8 9.7 0.00 0.00 0.00 65 1018.5
20260905073139 26 281 4.8 9.7 0.00 0.00 0.00 64 1018.5
20260905072638 26 287 3.2 8.0 0.00 0.00 0.00 63 1018.5
20260905072136 26 273 3.2 9.7 0.00 0.00 0.00 65 1018.4
20260905071631 26 221 3.2 9.7 0.00 0.00 0.00 65 1018.4
20260905071128 26 214 4.8 9.7 0.00 0.00 0.00 67 1018.4
20260905070628 26 208 4.8 9.7 0.00 0.00 0.00 68 1018.4
20260905070354 26 239 4.8 9.7 0.00 0.00 0.00 68 1018.4
20260905065626 26 229 4.8 8.0 0.00 0.00 0.00 66 1018.5
20260905065126 25 284 4.8 9.7 0.00 0.00 0.00 68 1018.4
20260905064624 25 225 4.8 9.7 0.00 0.00 0.00 68 1018.5
20260905064559 25 233 4.8 9.7 0.00 0.00 0.00 69 1018.4
20260905063623 25 233 6.4 9.7 0.00 0.00 0.00 69 1018.4
20260905063123 25 272 8.0 14.5 0.00 0.00 0.00 71 1018.4
20260905062621 25 255 8.0 14.5 0.00 0.00 0.00 72 1018.5
20260905062342 25 260 8.0 12.9 0.00 0.00 0.00 71 1018.4
20260905061621 25 264 8.0 12.9 0.00 0.00 0.00 72 1018.4
20260905061119 26 273 6.4 12.9 0.00 0.00 0.00 68 1018.4
20260905060619 26 257 3.2 9.7 0.00 0.00 0.00 62 1018.4
20260905060339 26 252 1.6 4.8 0.00 0.00 0.00 60 1018.4
20260905055619 26 231 1.6 4.8 0.00 0.00 0.00 60 1018.4
20260905055119 27 90 0.0 3.2 0.00 0.00 0.00 57 1018.4
20260905054619 27 90 0.0 1.6 0.00 0.00 0.00 57 1018.3
20260905054112 26 90 0.0 1.6 0.00 0.00 0.00 58 1018.3
20260905053605 26 89 1.6 1.6 0.00 0.00 0.00 58 1018.3
20260905053059 26 89 1.6 1.6 0.00 0.00 0.00 58 1018.4
20260905052552 26 89 1.6 1.6 0.00 0.00 0.00 58 1018.3
20260905052046 25 89 0.0 3.2 0.00 0.00 0.00 58 1018.2
20260905052025 25 89 0.0 3.2 0.00 0.00 0.00 58 1018.3
20260905051035 25 89 1.6 3.2 0.00 0.00 0.00 58 1018.3
20260905050529 25 89 1.6 3.2 0.00 0.00 0.00 58 1018.3
20260905050023 25 90 0.0 3.2 0.00 0.00 0.00 58 1018.3
20260905045516 25 75 0.0 3.2 0.00 0.00 0.00 60 1018.3
20260905045011 24 75 0.0 4.8 0.00 0.00 0.00 60 1018.2
20260905044505 24 75 0.0 4.8 0.00 0.00 0.00 61 1018.2
20260905043958 24 82 1.6 4.8 0.00 0.00 0.00 61 1018.1
20260905043452 23 82 1.6 4.8 0.00 0.00 0.00 62 1018.1
20260905042946 23 92 1.6 4.8 0.00 0.00 0.00 62 1018.1
20260905042448 23 93 1.6 3.2 0.00 0.00 0.00 62 1018.0
20260905042204 23 93 1.6 4.8 0.00 0.00 0.00 62 1017.9
20260905041428 23 92 3.2 6.4 0.00 0.00 0.00 62 1017.8
20260905040923 23 97 3.2 6.4 0.00 0.00 0.00 62 1017.8
20260905040634 23 99 3.2 6.4 0.00 0.00 0.00 62 1017.8
20260905040140 23 89 3.2 6.4 0.00 0.00 0.00 63 1017.7
20260905035404 23 91 3.2 6.4 0.00 0.00 0.00 63 1017.6
20260905034858 23 79 3.2 4.8 0.00 0.00 0.00 64 1017.6
20260905034352 23 104 3.2 4.8 0.00 0.00 0.00 65 1017.5
20260905033847 23 94 1.6 4.8 0.00 0.00 0.00 65 1017.6
20260905033340 23 108 1.6 4.8 0.00 0.00 0.00 65 1017.6
20260905032835 23 78 1.6 4.8 0.00 0.00 0.00 65 1017.6
20260905032329 23 89 1.6 4.8 0.00 0.00 0.00 65 1017.5
20260905031815 23 90 1.6 4.8 0.00 0.00 0.00 65 1017.5
20260905031749 23 102 0.0 3.2 0.00 0.00 0.00 64 1017.5
20260905031018 24 102 0.0 3.2 0.00 0.00 0.00 63 1017.4
20260905030256 24 102 0.0 1.6 0.00 0.00 0.00 63 1017.4
20260905025750 24 102 1.6 3.2 0.00 0.00 0.00 63 1017.3
20260905025246 24 102 1.6 3.2 0.00 0.00 0.00 63 1017.3
20260905025009 24 102 1.6 3.2 0.00 0.00 0.00 63 1017.3
20260905024232 24 105 0.0 3.2 0.00 0.00 0.00 63 1017.2
20260905023945 24 105 0.0 1.6 0.00 0.00 0.00 63 1017.2
20260905023221 24 105 0.0 1.6 0.00 0.00 0.00 63 1017.2
20260905022715 24 210 0.0 3.2 0.00 0.00 0.00 63 1017.2
20260905022208 24 210 0.0 3.2 0.00 0.00 0.00 63 1017.3
20260905021703 24 89 0.0 3.2 0.00 0.00 0.00 62 1017.2
20260905021157 24 89 1.6 3.2 0.00 0.00 0.00 62 1017.3
20260905020650 24 89 1.6 3.2 0.00 0.00 0.00 61 1017.2
20260905020405 24 89 0.0 3.2 0.00 0.00 0.00 61 1017.2
20260905015639 24 89 1.6 4.8 0.00 0.00 0.00 61 1017.3
20260905015133 24 89 3.2 8.0 0.00 0.00 0.00 61 1017.1
20260905014626 24 91 3.2 8.0 0.00 0.00 0.00 61 1017.2
20260905014120 24 107 1.6 4.8 0.00 0.00 0.00 60 1017.1
20260905013614 25 77 1.6 4.8 0.00 0.00 0.00 59 1017.1
20260905013108 25 98 1.6 3.2 0.00 0.00 0.00 58 1017.1
20260905012823 25 98 1.6 3.2 0.00 0.00 0.00 58 1017.0
20260905012057 25 98 0.0 3.2 0.00 0.00 0.00 58 1017.0
20260905011551 25 98 0.0 3.2 0.00 0.00 0.00 58 1017.0
20260905011534 25 98 1.6 6.4 0.00 0.00 0.00 57 1017.0
20260905010539 25 98 3.2 6.4 0.00 0.00 0.00 58 1016.9
20260905010033 25 99 1.6 3.2 0.00 0.00 0.00 58 1016.9
20260905005527 25 99 1.6 4.8 0.00 0.00 0.00 58 1016.9
20260905005021 24 99 1.6 4.8 0.00 0.00 0.00 58 1016.9
20260905004515 24 95 3.2 8.0 0.00 0.00 0.00 57 1016.9
20260905004236 25 82 4.8 8.0 0.00 0.00 0.00 56 1016.7
20260905003503 25 89 4.8 8.0 0.00 0.00 0.00 54 1016.7
20260905003221 25 96 3.2 6.4 0.00 0.00 0.00 52 1016.7
20260905002459 25 90 3.2 6.4 0.00 0.00 0.00 52 1016.7
20260905001958 25 120 1.6 6.4 0.00 0.00 0.00 53 1016.6
20260905001457 25 105 1.6 4.8 0.00 0.00 0.00 51 1016.6
20260905000955 25 304 1.6 4.8 0.00 0.00 0.00 51 1016.5
20260905000455 25 55 0.0 3.2 0.00 0.00 0.00 50 1016.5
20260905000218 25 55 1.6 3.2 0.00 0.00 0.00 50 1016.4
20260904235454 25 101 1.6 9.7 0.00 0.00 0.00 49 1016.3
20260904234952 25 104 3.2 9.7 0.00 0.00 0.00 49 1016.3
20260904234711 25 143 3.2 9.7 0.00 0.00 0.00 49 1016.3
20260904234207 25 113 3.2 9.7 0.00 0.00 0.00 49 1016.3
20260904233448 25 142 3.2 9.7 0.00 0.00 0.00 48 1016.3
20260904232947 25 97 1.6 6.4 0.00 0.00 0.00 48 1016.3
20260904232444 25 99 1.6 4.8 0.00 0.00 0.00 48 1016.3
20260904231945 25 152 1.6 4.8 0.00 0.00 0.00 48 1016.3
20260904231444 25 103 1.6 4.8 0.00 0.00 0.00 48 1016.3
20260904230945 25 115 1.6 4.8 0.00 0.00 0.00 48 1016.3
20260904230441 25 91 1.6 4.8 0.00 0.00 0.00 48 1016.2
20260904225941 25 148 1.6 4.8 0.00 0.00 0.00 50 1016.2
20260904225438 25 155 1.6 3.2 0.00 0.00 0.00 50 1016.3
20260904224939 25 149 1.6 3.2 0.00 0.00 0.00 52 1016.3
20260904224439 25 146 1.6 3.2 0.00 0.00 0.00 53 1016.3
20260904223939 26 148 1.6 3.2 0.00 0.00 0.00 54 1016.3
20260904223438 26 47 0.0 3.2 0.00 0.00 0.00 54 1016.3
20260904222939 26 46 1.6 3.2 0.00 0.00 0.00 54 1016.3
20260904222701 26 46 1.6 3.2 0.00 0.00 0.00 52 1016.3
20260904221938 26 259 1.6 4.8 0.00 0.00 0.00 50 1016.2
20260904221439 26 259 1.6 4.8 0.00 0.00 0.00 53 1016.2
20260904220939 26 203 1.6 4.8 0.00 0.00 0.00 53 1016.2
20260904220439 27 252 1.6 4.8 0.00 0.00 0.00 51 1016.3
20260904215939 27 269 1.6 4.8 0.00 0.00 0.00 49 1016.2
20260904215438 27 316 3.2 11.3 0.00 0.00 0.00 50 1016.3
20260904214938 27 302 4.8 11.3 0.00 0.00 0.00 50 1016.4
20260904214436 27 311 4.8 11.3 0.00 0.00 0.00 50 1016.4
20260904213934 27 311 3.2 11.3 0.00 0.00 0.00 46 1016.3
20260904213434 26 302 1.6 6.4 0.00 0.00 0.00 48 1016.4
20260904212928 26 252 1.6 4.8 0.00 0.00 0.00 48 1016.3
20260904212426 27 212 1.6 4.8 0.00 0.00 0.00 47 1016.3
20260904212151 26 271 0.0 3.2 0.00 0.00 0.00 45 1016.4
20260904211427 26 336 0.0 1.6 0.00 0.00 0.00 46 1016.3
20260904210929 26 336 1.6 1.6 0.00 0.00 0.00 46 1016.3
20260904210426 26 336 0.0 1.6 0.00 0.00 0.00 45 1016.3
20260904205925 26 336 3.2 12.9 0.00 0.00 0.00 46 1016.4
20260904205425 27 336 3.2 12.9 0.00 0.00 0.00 46 1016.4
20260904204925 27 47 1.6 8.0 0.00 0.00 0.00 44 1016.2
20260904204425 27 57 1.6 4.8 0.00 0.00 0.00 48 1016.3
20260904203926 27 20 1.6 4.8 0.00 0.00 0.00 47 1016.3
20260904203425 27 215 1.6 6.4 0.00 0.00 0.00 47 1016.2
20260904202925 27 238 1.6 6.4 0.00 0.00 0.00 47 1016.2
20260904202424 27 148 1.6 4.8 0.00 0.00 0.00 47 1016.2
20260904201924 27 183 1.6 3.2 0.00 0.00 0.00 47 1016.2
20260904201424 27 156 1.6 4.8 0.00 0.00 0.00 47 1016.2
20260904201142 27 198 1.6 4.8 0.00 0.00 0.00 46 1016.1
20260904200424 27 216 1.6 6.4 0.00 0.00 0.00 46 1016.2
20260904200145 27 159 1.6 6.4 0.00 0.00 0.00 49 1016.1
20260904195424 27 139 1.6 6.4 0.00 0.00 0.00 49 1016.1
20260904194925 27 150 1.6 4.8 0.00 0.00 0.00 45 1016.0
20260904194420 27 179 1.6 4.8 0.00 0.00 0.00 43 1016.0
20260904193920 28 58 1.6 4.8 0.00 0.00 0.00 45 1016.0
20260904193420 28 255 1.6 4.8 0.00 0.00 0.00 45 1016.0
20260904193143 28 255 1.6 6.4 0.00 0.00 0.00 44 1016.0
20260904192420 27 301 1.6 6.4 0.00 0.00 0.00 45 1016.0
20260904191919 28 136 1.6 6.4 0.00 0.00 0.00 44 1016.1
20260904191418 28 80 1.6 4.8 0.00 0.00 0.00 45 1016.0
20260904190918 28 172 1.6 4.8 0.00 0.00 0.00 43 1016.0
20260904190644 28 153 1.6 4.8 0.00 0.00 0.00 43 1016.0
20260904185915 28 103 0.0 3.2 0.00 0.00 0.00 45 1016.0
20260904185415 28 182 0.0 1.6 0.00 0.00 0.00 45 1016.0
20260904184913 28 185 0.0 0.0 0.00 0.00 0.00 46 1015.9
20260904184413 28 185 0.0 1.6 0.00 0.00 0.00 46 1015.9
20260904183912 28 185 1.6 3.2 0.00 0.00 0.00 46 1015.7
20260904183415 28 184 1.6 3.2 0.00 0.00 0.00 46 1015.7
20260904183411 28 143 0.0 3.2 0.00 0.00 0.00 47 1015.6
20260904182412 28 143 1.6 3.2 0.00 0.00 0.00 47 1015.5
20260904181911 28 103 1.6 6.4 0.00 0.00 0.00 48 1015.5
20260904181410 28 104 1.6 6.4 0.00 0.03 0.00 48 1015.4
20260904180908 28 135 1.6 4.8 0.00 0.03 0.00 48 1015.4
20260904180408 28 271 1.6 4.8 0.00 0.05 0.00 52 1015.3
20260904175909 28 271 1.6 4.8 0.00 0.10 0.00 54 1015.2
20260904175408 29 252 1.6 3.2 0.00 0.10 0.00 55 1015.1
20260904175129 29 268 0.0 3.2 0.00 0.13 0.00 54 1015.0
20260904174401 29 41 0.0 3.2 0.00 0.28 0.00 52 1015.0
20260904173856 29 41 1.6 4.8 0.00 0.43 0.00 53 1014.9
20260904173349 29 40 3.2 8.0 0.00 0.58 0.00 52 1014.9
20260904172843 30 314 3.2 8.0 0.00 1.07 0.00 50 1014.8
20260904172337 30 311 3.2 8.0 0.00 1.32 0.00 49 1014.7
20260904171830 30 277 4.8 14.5 0.00 1.32 0.00 49 1014.6
20260904171554 30 270 4.8 14.5 0.00 1.32 0.00 47 1014.5
20260904171059 30 258 4.8 11.3 0.00 1.32 0.00 47 1014.5
20260904170106 30 289 4.8 9.7 0.00 1.32 0.00 49 1014.3
20260904165600 30 267 6.4 9.7 0.00 1.32 0.00 47 1014.3
20260904165054 30 283 6.4 9.7 0.00 1.32 0.00 50 1014.3
20260904164548 30 292 4.8 9.7 0.00 1.32 0.00 47 1014.2
20260904164038 30 274 6.4 12.9 0.00 1.32 0.00 47 1014.2
20260904163532 31 273 6.4 12.9 0.00 1.32 0.00 45 1014.2
20260904163026 31 231 4.8 11.3 0.00 1.32 0.00 44 1014.1
20260904162520 31 248 4.8 9.7 0.00 1.32 0.00 44 1014.1
20260904162013 31 292 6.4 16.1 0.00 1.32 0.00 44 1014.1
20260904161507 32 259 8.0 16.1 0.00 1.32 0.00 43 1014.0
20260904161001 32 259 8.0 17.7 0.00 1.32 0.00 36 1014.1
20260904160456 32 261 8.0 17.7 0.00 1.32 0.00 34 1014.1
20260904155950 32 281 8.0 12.9 0.00 1.32 0.00 34 1014.1
20260904155443 32 281 8.0 16.1 0.00 1.32 0.00 36 1014.1
20260904154938 32 308 8.0 16.1 0.00 1.32 0.00 36 1014.1
20260904154433 32 298 9.7 19.3 0.00 1.32 0.00 34 1014.0
20260904153926 32 281 11.3 19.3 0.00 1.32 0.00 31 1014.1
20260904153646 32 290 11.3 20.9 0.00 1.32 0.00 33 1014.0
20260904153412 32 297 12.9 24.1 0.00 1.32 0.00 30 1014.0
20260904152426 32 299 11.3 24.1 0.00 1.32 0.00 30 1013.9
20260904151926 33 319 8.0 16.1 0.00 1.32 0.00 34 1013.9
20260904151426 33 289 4.8 16.1 0.00 1.32 0.00 30 1014.0
20260904150928 33 11 4.8 12.9 0.00 1.32 0.00 26 1014.0
20260904150650 33 2 4.8 14.5 0.00 1.32 0.00 24 1013.9
20260904145926 33 27 4.8 14.5 0.00 1.32 0.00 26 1014.0
20260904145426 33 27 4.8 14.5 0.00 1.32 0.00 27 1013.9
20260904144926 33 292 4.8 14.5 0.00 1.32 0.00 27 1014.0
20260904144426 33 280 4.8 9.7 0.00 1.32 0.00 26 1014.0
20260904143926 33 0 4.8 9.7 0.00 1.32 0.00 27 1014.0
20260904143426 33 341 4.8 11.3 0.00 1.32 0.00 28 1014.0
20260904142926 33 311 3.2 11.3 0.00 1.32 0.00 30 1014.1
20260904142426 33 294 3.2 8.0 0.00 1.32 0.00 30 1014.1
20260904141924 33 210 3.2 8.0 0.00 1.32 0.00 31 1014.1
20260904141650 33 207 1.6 6.4 0.00 1.32 0.00 31 1014.1
20260904140916 32 203 1.6 6.4 0.00 1.32 0.00 33 1014.2
20260904140410 32 274 3.2 8.0 0.00 1.32 0.00 33 1014.2
20260904140124 32 238 3.2 8.0 0.00 1.32 0.00 34 1014.2
20260904135357 32 210 3.2 11.3 0.00 1.32 0.00 34 1014.2
20260904134851 32 123 3.2 11.3 0.00 1.32 0.00 35 1014.2
20260904134346 32 212 3.2 9.7 0.00 1.32 0.00 34 1014.2
20260904133840 32 226 4.8 11.3 0.00 1.32 0.00 37 1014.2
20260904133334 32 200 4.8 11.3 0.00 1.32 0.00 38 1014.4
20260904132828 32 209 4.8 9.7 0.00 1.32 0.00 38 1014.4
20260904132551 32 143 4.8 9.7 0.00 1.32 0.00 37 1014.4
20260904131822 32 244 4.8 12.9 0.00 1.32 0.00 37 1014.4
20260904131320 32 211 4.8 12.9 0.00 1.32 0.00 38 1014.4
20260904130820 32 207 4.8 12.9 0.00 1.32 0.00 37 1014.5
20260904130320 32 200 4.8 12.9 0.00 1.32 0.00 36 1014.4
20260904125818 32 219 6.4 11.3 0.00 1.32 0.00 35 1014.5
20260904125316 32 243 4.8 12.9 0.00 1.32 0.00 32 1014.6
20260904124816 32 252 4.8 14.5 0.00 1.32 0.00 33 1014.5
20260904124316 32 202 4.8 14.5 0.00 1.32 0.00 32 1014.6
20260904123816 32 260 4.8 11.3 0.00 1.32 0.00 34 1014.8
20260904123313 32 220 6.4 16.1 0.00 1.32 0.00 34 1014.8
20260904122814 32 194 6.4 16.1 0.00 1.32 0.00 34 1014.8
20260904122314 32 252 6.4 16.1 0.00 1.32 0.00 32 1014.8
20260904121813 32 256 6.4 12.9 0.00 1.32 0.00 32 1014.9
20260904121312 32 264 4.8 12.9 0.00 1.32 0.00 32 1015.0
20260904120812 32 207 6.4 12.9 0.00 1.32 0.00 33 1015.1
20260904120312 32 186 6.4 12.9 0.00 1.32 0.00 33 1015.2
20260904115812 32 259 6.4 12.9 0.00 1.32 0.00 31 1015.2
20260904115312 32 247 6.4 12.9 0.00 1.32 0.00 33 1015.2
20260904114812 32 258 6.4 12.9 0.00 1.32 0.00 35 1015.3
20260904114312 32 285 4.8 12.9 0.00 1.32 0.00 33 1015.3
20260904114035 32 323 6.4 12.9 0.00 1.32 0.00 30 1015.4
20260904113312 32 248 8.0 11.3 0.00 1.32 0.00 30 1015.4
20260904112811 31 273 8.0 14.5 0.00 1.32 0.00 32 1015.5
20260904112311 31 255 6.4 14.5 0.00 1.32 0.00 34 1015.5
20260904112258 31 242 8.0 12.9 0.00 1.32 0.00 33 1015.4
20260904111312 31 271 8.0 14.5 0.00 1.32 0.00 32 1015.5
20260904111029 31 268 8.0 14.5 0.00 1.32 0.00 33 1015.6
20260904110312 31 261 8.0 12.9 0.00 1.32 0.00 33 1015.6
20260904105812 31 273 8.0 12.9 0.00 1.32 0.00 35 1015.6
20260904105311 31 263 6.4 11.3 0.00 1.32 0.00 34 1015.8
20260904104811 31 269 6.4 11.3 0.00 1.32 0.00 37 1015.8
20260904104312 31 255 6.4 12.9 0.00 1.32 0.00 38 1015.8
20260904103812 31 262 6.4 12.9 0.00 1.32 0.00 38 1015.9
20260904103312 31 292 4.8 9.7 0.00 1.32 0.00 38 1015.9
20260904102811 30 239 4.8 9.7 0.00 1.32 0.00 38 1015.8
20260904102312 30 265 6.4 11.3 0.00 1.32 0.00 39 1015.8
20260904101811 30 255 8.0 12.9 0.00 1.32 0.00 38 1015.9
20260904101312 30 263 6.4 12.9 0.00 1.32 0.00 38 1015.9
20260904100811 30 283 4.8 11.3 0.00 1.32 0.00 39 1015.9
20260904100311 30 252 4.8 9.7 0.00 1.32 0.00 38 1016.0
20260904100030 30 266 3.2 8.0 0.00 1.32 0.00 39 1016.1
20260904095531 30 289 3.2 8.0 0.00 1.32 0.00 39 1016.2
20260904094811 30 252 1.6 8.0 0.00 1.32 0.00 38 1016.2
20260904094311 30 209 3.2 6.4 0.00 1.32 0.00 39 1016.3